Location: Newark
(41.7772°N, 74.7403°W)
Time: 13:37:53
(UTC+00:00)

Transit 4A - Pass Details

Date: 01 June 2020
Orbit: 866 x 978 km, 66.8° (Epoch: 06 July)

Event Time Altitude Azimuth Distance (km) Brightness Sun altitude
Exits shadow 07:29:58 15° 263° (W) 2,177 9.4 -16.9°
Maximum altitude 07:33:46 28° 313° (NW) 1,583 9.2 -16.5°
Drops below altitude 10° 07:38:49 10° 12° (NNE) 2,568 11.2 -15.9°
Sets 07:41:44 0° 24° (NNE) 3,529 12.5 -15.6°
